Piney Island, NC

2:40 AM EDT on March 24, 2017 (GMT -0400)
Piney Island

Weather History for KNBT - August, 2014

Change the Weather History Date:

Sunday, August 17, 2014

  Actual Average (KMRH) Record (KMRH)
Temperature  
Mean Temperature 83 °F -  
Max Temperature 91 °F 86 °F 93 °F (1984)
Min Temperature 75 °F 71 °F 55 °F (1979)
Cooling Degree Days 18    
Growing Degree Days 33 (Base 50)    
Moisture  
Dew Point 75 °F    
Average Humidity 84    
Maximum Humidity 100    
Minimum Humidity 52    
Precipitation  
Precipitation 0.00 in - - ()
Sea Level Pressure  
Sea Level Pressure 29.98 in    
Wind  
Wind Speed 6 mph (WSW)    
Max Wind Speed 10 mph    
Max Gust Speed -    
Visibility 7 miles    
Events      
Averages and records for this station are not official NWS values.
T = Trace of Precipitation, MM = Missing Value Source: NWS Daily Summary

Daily Weather History Graph

Daily Weather History Graph

Search for Another Location

Airport or City:

Trip Planner

Search our weather history database for the weather conditions in past years. The results will help you decide how hot, cold, wet, or windy it might be!

Date:

Astronomy

Aug. 17, 2014 Rise Set
Actual Time 6:27 AM EDT 7:51 PM EDT
Civil Twilight 6:00 AM EDT 8:18 PM EDT
Nautical Twilight 5:28 AM EDT 8:50 PM EDT
Astronomical Twilight 4:55 AM EDT 9:23 PM EDT
Moon No Moon Rise 1:52 PM EDT (8/17)
Length of Visible Light 14h 17m
Length of Day
13h 24m
Waning Gibbous, 48% of the Moon is Illuminated
Aug 17
Waning Gibbous
Aug 25
New
Sep 2
First Quarter
Sep 8
Full
Sep 15
Last Quarter

Hourly Weather History & Observations

Time (EDT) Temp. Heat Index Dew Point Humidity Pressure Visibility Wind Dir Wind Speed Gust Speed Precip Events Conditions
12:56 AM 75.0 °F - 73.0 °F 94% 30.01 in 9.0 mi West 3.5 mph - N/A   Clear
1:56 AM 77.0 °F - 75.0 °F 94% 30.00 in 8.0 mi West 4.6 mph - N/A   Clear
2:56 AM 77.0 °F - 75.0 °F 94% 29.99 in 8.0 mi SW 4.6 mph - N/A   Clear
3:56 AM 77.0 °F - 77.0 °F 100% 29.99 in 7.0 mi WSW 4.6 mph - N/A   Clear
4:56 AM 77.0 °F - 75.9 °F 96% 29.99 in 6.0 mi SW 5.8 mph - N/A   Clear
5:29 AM 75.9 °F - 75.0 °F 97% 29.97 in 2.5 mi SW 5.8 mph - N/A   Clear
5:37 AM 75.9 °F - 75.0 °F 97% 29.98 in 5.0 mi SW 5.8 mph - N/A   Clear
5:56 AM 75.9 °F - 75.0 °F 97% 29.99 in 5.0 mi SSW 5.8 mph - N/A   Clear
6:56 AM 75.9 °F - 75.0 °F 97% 29.99 in 4.0 mi SSW 4.6 mph - N/A   Clear
7:56 AM 79.0 °F - 78.1 °F 97% 30.00 in 4.0 mi WSW 3.5 mph - N/A   Clear
8:56 AM 78.1 °F - 77.0 °F 96% 30.00 in 8.0 mi West 8.1 mph - N/A   Clear
9:56 AM 79.0 °F - 75.9 °F 90% 30.01 in 8.0 mi West 8.1 mph - N/A   Clear
10:56 AM 78.1 °F - 75.0 °F 90% 30.01 in 8.0 mi West 8.1 mph - N/A   Clear
11:56 AM 86.0 °F 92.2 °F 72.0 °F 63% 30.01 in 10.0 mi West 9.2 mph - N/A   Clear
12:56 PM 88.0 °F 95.6 °F 73.0 °F 61% 29.99 in 10.0 mi West 10.4 mph - N/A   Clear
1:56 PM 88.0 °F 95.6 °F 73.0 °F 61% 29.98 in 10.0 mi West 10.4 mph - N/A   Clear
2:56 PM 89.1 °F 94.1 °F 70.0 °F 53% 29.96 in 10.0 mi West 10.4 mph - N/A   Clear
3:56 PM 90.0 °F 95.4 °F 70.0 °F 52% 29.95 in 10.0 mi WNW 10.4 mph - N/A   Clear
4:56 PM 91.0 °F 98.2 °F 72.0 °F 53% 29.94 in 10.0 mi West 10.4 mph - N/A   Clear
5:56 PM 88.0 °F 100.2 °F 77.0 °F 70% 29.94 in 9.0 mi SSW 8.1 mph - N/A   Clear
6:56 PM 84.0 °F 92.6 °F 75.9 °F 76% 29.95 in 8.0 mi SSW 9.2 mph - N/A   Clear
7:56 PM 82.9 °F 92.8 °F 78.1 °F 85% 29.95 in 6.0 mi SSW 8.1 mph - N/A   Haze
8:56 PM 81.0 °F 87.9 °F 77.0 °F 88% 29.96 in 7.0 mi SSW 6.9 mph - N/A   Clear
9:56 PM 80.1 °F 85.8 °F 77.0 °F 90% 29.96 in 6.0 mi SSW 4.6 mph - N/A   Clear
10:56 PM 79.0 °F - 77.0 °F 94% 29.96 in 5.0 mi WNW 3.5 mph - N/A   Clear
11:56 PM 80.1 °F 86.4 °F 78.1 °F 94% 29.96 in 6.0 mi WSW 3.5 mph - N/A   Clear